����,���ϕ���(m/s),���ϕ���,�ő�u�ԕ���(m/s),�ő啗��������,�C��(��),���x(%),10���Ԉړ��ώZ�J��(mm),1���Ԉړ��ώZ�J��(mm),���J��(mm),�݌v�J��(mm)
2020-09-21T00:00:00+09:00,1.8,�k�k��,2.8,�k�k��,17.3,91.9,0,0,0,0
2020-09-21T00:01:00+09:00,1.7,�k��,2.8,�k�k��,17.3,91.7,0,0,0,0
2020-09-21T00:02:00+09:00,1.7,�k�k��,2.8,�k�k��,17.3,91.6,0,0,0,0
2020-09-21T00:03:00+09:00,1.7,�k�k��,2.7,�k�k��,17.2,91.2,0,0,0,0
2020-09-21T00:04:00+09:00,1.6,�k�k��,2.7,�k�k��,17.2,91,0,0,0,0
2020-09-21T00:05:00+09:00,1.6,�k��,2.9,�k�k��,17.2,90.8,0,0,0,0
2020-09-21T00:06:00+09:00,1.7,�k�k��,3.3,�k�k��,17.2,90.7,0,0,0,0
2020-09-21T00:07:00+09:00,1.8,�k�k��,3.3,�k�k��,17.2,90.8,0,0,0,0
2020-09-21T00:08:00+09:00,2,�k�k��,3.5,�k,17.2,90.7,0,0,0,0
2020-09-21T00:09:00+09:00,2.1,�k�k��,3.5,�k,17.2,90.6,0,0,0,0
2020-09-21T00:10:00+09:00,2.3,�k�k��,3.5,�k,17.2,90.5,0,0,0,0
2020-09-21T00:11:00+09:00,2.4,�k�k��,3.5,�k,17.2,90.5,0,0,0,0
2020-09-21T00:12:00+09:00,2.5,�k�k��,3.5,�k,17.2,90.5,0,0,0,0
2020-09-21T00:13:00+09:00,2.5,�k�k��,3.5,�k,17.2,90.4,0,0,0,0
2020-09-21T00:14:00+09:00,2.5,�k�k��,3.5,�k,17.2,90.2,0,0,0,0
2020-09-21T00:15:00+09:00,2.4,�k�k��,3.5,�k,17.3,90.1,0,0,0,0
2020-09-21T00:16:00+09:00,2.3,�k�k��,3.5,�k,17.4,89.9,0,0,0,0
2020-09-21T00:17:00+09:00,2.2,�k�k��,3.5,�k,17.3,89.3,0,0,0,0
2020-09-21T00:18:00+09:00,2.1,�k�k��,3.1,�k�k��,17.3,89.1,0,0,0,0
2020-09-21T00:19:00+09:00,1.9,�k�k��,3.1,�k�k��,17.3,89,0,0,0,0
2020-09-21T00:20:00+09:00,1.8,�k�k��,3,�k�k��,17.2,89.1,0,0,0,0
2020-09-21T00:21:00+09:00,1.7,�k�k��,3,�k�k��,17.2,89.3,0,0,0,0
2020-09-21T00:22:00+09:00,1.6,�k�k��,2.8,�k�k��,17.1,89.6,0,0,0,0
2020-09-21T00:23:00+09:00,1.6,�k��,2.6,�k,17.1,90.2,0,0,0,0
2020-09-21T00:24:00+09:00,1.5,�k��,2.5,�k�k��,17.1,90.8,0,0,0,0
2020-09-21T00:25:00+09:00,1.5,�k��,2.6,�k�k��,17,91.3,0,0,0,0
2020-09-21T00:26:00+09:00,1.6,�k��,2.6,�k�k��,17,91.9,0,0,0,0
2020-09-21T00:27:00+09:00,1.6,�k��,2.6,�k�k��,17,92.3,0,0,0,0
2020-09-21T00:28:00+09:00,1.6,�k��,2.6,�k�k��,17,92.4,0,0,0,0
2020-09-21T00:29:00+09:00,1.7,�k��,2.6,�k�k��,16.9,92.3,0,0,0,0
2020-09-21T00:30:00+09:00,1.8,�k�k��,3.1,�k�k��,16.8,92.5,0,0,0,0
2020-09-21T00:31:00+09:00,1.9,�k�k��,3.1,�k�k��,16.8,92.8,0,0,0,0
2020-09-21T00:32:00+09:00,2,�k�k��,3.1,�k�k��,16.8,93.1,0,0,0,0
2020-09-21T00:33:00+09:00,2,�k�k��,3.2,�k��,16.8,93.4,0,0,0,0
2020-09-21T00:34:00+09:00,2.1,�k�k��,3.2,�k��,16.9,93.4,0,0,0,0
2020-09-21T00:35:00+09:00,2.2,�k�k��,3.4,�k��,16.8,93.3,0,0,0,0
2020-09-21T00:36:00+09:00,2.3,�k�k��,3.6,�k��,16.8,93.2,0,0,0,0
2020-09-21T00:37:00+09:00,2.3,�k��,3.6,�k��,16.8,93.2,0,0,0,0
2020-09-21T00:38:00+09:00,2.4,�k��,3.6,�k��,16.8,93,0,0,0,0
2020-09-21T00:39:00+09:00,2.4,�k��,3.6,�k��,16.7,92.9,0,0,0,0
2020-09-21T00:40:00+09:00,2.4,�k��,3.6,�k��,16.7,92.8,0,0,0,0
2020-09-21T00:41:00+09:00,2.4,�k��,3.6,�k��,16.7,92.9,0,0,0,0
2020-09-21T00:42:00+09:00,2.3,�k�k��,3.6,�k��,16.7,92.9,0,0,0,0
2020-09-21T00:43:00+09:00,2.3,�k�k��,3.6,�k��,16.8,93,0,0,0,0
2020-09-21T00:44:00+09:00,2.2,�k�k��,3.6,�k��,16.8,93,0,0,0,0
2020-09-21T00:45:00+09:00,2.1,�k�k��,3.6,�k��,16.8,92.8,0,0,0,0
2020-09-21T00:46:00+09:00,1.9,�k�k��,3.2,�k�k��,16.8,92.8,0,0,0,0
2020-09-21T00:47:00+09:00,1.9,�k�k��,3.2,�k�k��,16.9,93,0,0,0,0
2020-09-21T00:48:00+09:00,1.8,�k��,3.2,�k�k��,16.9,93.1,0,0,0,0
2020-09-21T00:49:00+09:00,1.8,�k��,3.2,�k�k��,16.9,93.1,0,0,0,0
2020-09-21T00:50:00+09:00,1.8,�k��,3.2,�k�k��,16.8,92.7,0,0,0,0
2020-09-21T00:51:00+09:00,1.8,�k��,3.2,�k�k��,16.8,92.7,0,0,0,0
2020-09-21T00:52:00+09:00,1.8,�k��,3.2,�k�k��,16.8,92.8,0,0,0,0
2020-09-21T00:53:00+09:00,1.8,�k�k��,2.9,�k�k��,16.8,92.9,0,0,0,0
2020-09-21T00:54:00+09:00,1.9,�k�k��,3.3,�k�k��,16.8,93,0,0,0,0
2020-09-21T00:55:00+09:00,2,�k�k��,3.3,�k�k��,16.8,93,0,0,0,0
2020-09-21T00:56:00+09:00,2.1,�k�k��,3.3,�k�k��,16.7,93,0,0,0,0
2020-09-21T00:57:00+09:00,2.2,�k�k��,3.4,�k�k��,16.7,92.8,0,0,0,0
2020-09-21T00:58:00+09:00,2.3,�k�k��,3.4,�k�k��,16.7,92.8,0,0,0,0
2020-09-21T00:59:00+09:00,2.4,�k�k��,3.4,�k�k��,16.7,92.9,0,0,0,0
2020-09-21T01:00:00+09:00,2.4,�k�k��,3.4,�k�k��,16.7,93.1,0,0,0,0
2020-09-21T01:01:00+09:00,2.4,�k�k��,3.4,�k�k��,16.6,93,0,0,0,0
2020-09-21T01:02:00+09:00,2.4,�k�k��,3.4,�k�k��,16.6,92.8,0,0,0,0
2020-09-21T01:03:00+09:00,2.3,�k�k��,3.4,�k�k��,16.5,93.1,0,0,0,0
2020-09-21T01:04:00+09:00,2.3,�k�k��,3.4,�k�k��,16.5,93.2,0,0,0,0
2020-09-21T01:05:00+09:00,2.2,�k�k��,3.4,�k�k��,16.6,93.6,0,0,0,0
2020-09-21T01:06:00+09:00,2.2,�k�k��,3.4,�k�k��,16.6,93.8,0,0,0,0
2020-09-21T01:07:00+09:00,2,�k�k��,3.4,�k�k��,16.7,93.7,0,0,0,0
2020-09-21T01:08:00+09:00,1.9,�k�k��,3.2,�k�k��,16.6,93.5,0,0,0,0
2020-09-21T01:09:00+09:00,1.9,�k�k��,3.1,�k,16.5,93,0,0,0,0
2020-09-21T01:10:00+09:00,1.9,�k�k��,2.9,�k�k��,16.5,93.1,0,0,0,0
2020-09-21T01:11:00+09:00,2,�k�k��,2.9,�k�k��,16.7,93.6,0,0,0,0
2020-09-21T01:12:00+09:00,1.9,�k�k��,2.9,�k�k��,16.7,93.2,0,0,0,0
2020-09-21T01:13:00+09:00,1.9,�k�k��,2.9,�k�k��,16.6,92.8,0,0,0,0
2020-09-21T01:14:00+09:00,1.8,�k�k��,2.9,�k�k��,16.6,92.6,0,0,0,0
2020-09-21T01:15:00+09:00,1.6,�k�k��,2.9,�k�k��,16.6,92.5,0,0,0,0
2020-09-21T01:16:00+09:00,1.5,�k�k��,2.9,�k�k��,16.6,92.4,0,0,0,0
2020-09-21T01:17:00+09:00,1.5,�k��,2.9,�k�k��,16.6,92.4,0,0,0,0
2020-09-21T01:18:00+09:00,1.5,�k��,2.9,�k�k��,16.5,92.5,0,0,0,0
2020-09-21T01:19:00+09:00,1.5,�k�k��,2.9,�k�k��,16.5,92.6,0,0,0,0
2020-09-21T01:20:00+09:00,1.5,�k�k��,2.8,�k�k��,16.5,92.7,0,0,0,0
2020-09-21T01:21:00+09:00,1.5,�k�k��,2.9,�k�k��,16.5,92.8,0,0,0,0
2020-09-21T01:22:00+09:00,1.5,�k�k��,2.9,�k�k��,16.6,92.8,0,0,0,0
2020-09-21T01:23:00+09:00,1.4,�k�k��,2.9,�k�k��,16.6,92.6,0,0,0,0
2020-09-21T01:24:00+09:00,1.5,�k�k��,2.9,�k�k��,16.5,92.2,0,0,0,0
2020-09-21T01:25:00+09:00,1.6,�k�k��,2.9,�k�k��,16.5,91.9,0,0,0,0
2020-09-21T01:26:00+09:00,1.8,�k�k��,3.2,�k��,16.5,91.8,0,0,0,0
2020-09-21T01:27:00+09:00,1.9,�k�k��,3.2,�k��,16.5,91.7,0,0,0,0
2020-09-21T01:28:00+09:00,1.9,�k�k��,3.2,�k��,16.6,91.8,0,0,0,0
2020-09-21T01:29:00+09:00,1.9,�k�k��,3.2,�k��,16.6,91.8,0,0,0,0
2020-09-21T01:30:00+09:00,1.9,�k�k��,3.2,�k��,16.5,91.3,0,0,0,0
2020-09-21T01:31:00+09:00,1.8,�k��,3.2,�k��,16.5,91.3,0,0,0,0
2020-09-21T01:32:00+09:00,1.9,�k��,3.2,�k��,16.5,91.5,0,0,0,0
2020-09-21T01:33:00+09:00,1.9,�k��,3.2,�k��,16.4,91.6,0,0,0,0
2020-09-21T01:34:00+09:00,1.9,�k��,3.2,�k��,16.5,91.7,0,0,0,0
2020-09-21T01:35:00+09:00,1.8,�k��,3.2,�k��,16.4,91.7,0,0,0,0
2020-09-21T01:36:00+09:00,1.6,�k��,3.2,�k�k��,16.5,91.8,0,0,0,0
2020-09-21T01:37:00+09:00,1.5,�k��,2.6,�k�k��,16.5,91.8,0,0,0,0
2020-09-21T01:38:00+09:00,1.4,���k��,2.6,�k�k��,16.6,91.8,0,0,0,0
2020-09-21T01:39:00+09:00,1.2,���k��,2.6,�k�k��,16.9,91.8,0,0,0,0
2020-09-21T01:40:00+09:00,1.1,���k��,2,�k�k��,16.8,90.8,0,0,0,0
2020-09-21T01:41:00+09:00,1.1,���k��,2.1,�k��,16.7,89.6,0,0,0,0
2020-09-21T01:42:00+09:00,1.2,���k��,2.1,�k��,16.7,89.5,0,0,0,0
2020-09-21T01:43:00+09:00,1.2,���k��,2.1,�k��,16.7,89.5,0,0,0,0
2020-09-21T01:44:00+09:00,1.2,���k��,2.1,�k��,16.6,89.5,0,0,0,0
2020-09-21T01:45:00+09:00,1.1,���k��,2.1,�k��,16.5,89.1,0,0,0,0
2020-09-21T01:46:00+09:00,1.2,�k��,2.1,�k��,16.4,89,0,0,0,0
2020-09-21T01:47:00+09:00,1.2,�k��,2.1,�k��,16.4,89.3,0,0,0,0
2020-09-21T01:48:00+09:00,1.3,�k��,2.4,�k�k��,16.5,89.4,0,0,0,0
2020-09-21T01:49:00+09:00,1.5,�k��,2.7,�k�k��,16.4,89.1,0,0,0,0
2020-09-21T01:50:00+09:00,1.6,�k��,2.7,�k�k��,16.3,88.8,0,0,0,0
2020-09-21T01:51:00+09:00,1.5,�k��,2.7,�k�k��,16.3,89.1,0,0,0,0
2020-09-21T01:52:00+09:00,1.4,�k��,2.7,�k�k��,16.2,89.4,0,0,0,0
2020-09-21T01:53:00+09:00,1.5,�k�k��,2.7,�k�k��,16.3,89.6,0,0,0,0
2020-09-21T01:54:00+09:00,1.6,�k�k��,2.7,�k�k��,16.2,89.4,0,0,0,0
2020-09-21T01:55:00+09:00,1.7,�k�k��,3.2,�k�k��,16.1,89.5,0,0,0,0
2020-09-21T01:56:00+09:00,1.8,�k�k��,3.2,�k�k��,16.1,89.8,0,0,0,0
2020-09-21T01:57:00+09:00,1.8,�k��,3.2,�k�k��,16.1,90.2,0,0,0,0
2020-09-21T01:58:00+09:00,1.9,�k��,3.2,�k�k��,16.1,90.7,0,0,0,0
2020-09-21T01:59:00+09:00,1.8,�k��,3.2,�k�k��,16.1,91,0,0,0,0
2020-09-21T02:00:00+09:00,1.9,�k��,3.2,�k�k��,16.1,90.9,0,0,0,0
2020-09-21T02:01:00+09:00,2.1,�k��,3.2,�k�k��,16,90.8,0,0,0,0
2020-09-21T02:02:00+09:00,2.1,�k��,3.2,�k�k��,16,91.3,0,0,0,0
2020-09-21T02:03:00+09:00,2,�k��,3.2,�k�k��,15.9,91.5,0,0,0,0
2020-09-21T02:04:00+09:00,2,�k��,3.2,�k�k��,15.8,91.6,0,0,0,0
2020-09-21T02:05:00+09:00,1.8,�k��,3.2,�k�k��,15.7,91.9,0,0,0,0
2020-09-21T02:06:00+09:00,1.7,�k�k��,3.2,�k�k��,15.7,92.6,0,0,0,0
2020-09-21T02:07:00+09:00,1.7,�k�k��,3.2,�k�k��,15.8,93.2,0,0,0,0
2020-09-21T02:08:00+09:00,1.6,�k�k��,3.2,�k�k��,15.8,93.6,0,0,0,0
2020-09-21T02:09:00+09:00,1.5,�k�k��,3.2,�k�k��,15.9,94,0,0,0,0
2020-09-21T02:10:00+09:00,1.4,�k�k��,3.2,�k�k��,15.8,93.9,0,0,0,0
2020-09-21T02:11:00+09:00,1.3,�k�k��,2.8,�k��,15.8,93.7,0,0,0,0
2020-09-21T02:12:00+09:00,1.2,�k�k��,2.8,�k��,15.9,93.8,0,0,0,0
2020-09-21T02:13:00+09:00,1,�k�k��,2.8,�k��,15.9,93.7,0,0,0,0
2020-09-21T02:14:00+09:00,0.9,�k�k��,2.5,�k,15.9,93.8,0,0,0,0
2020-09-21T02:15:00+09:00,0.8,�k�k��,2.5,�k,15.9,93.7,0,0,0,0
2020-09-21T02:16:00+09:00,0.7,�k�k��,2.5,�k,15.7,93.3,0,0,0,0
2020-09-21T02:17:00+09:00,0.6,�k��,2.5,�k,15.7,93.4,0,0,0,0
2020-09-21T02:18:00+09:00,0.6,�k��,2.5,�k,15.8,93.7,0,0,0,0
2020-09-21T02:19:00+09:00,0.5,�k��,1.8,�k�k��,15.8,93.9,0,0,0,0
2020-09-21T02:20:00+09:00,0.5,�k��,1.9,�k�k��,15.8,93.9,0,0,0,0
2020-09-21T02:21:00+09:00,0.5,�k��,1.9,�k�k��,15.9,93.9,0,0,0,0
2020-09-21T02:22:00+09:00,0.6,�k�k��,1.9,�k�k��,15.9,93.7,0,0,0,0
2020-09-21T02:23:00+09:00,0.7,�k�k��,1.9,�k�k��,15.9,93.4,0,0,0,0
2020-09-21T02:24:00+09:00,0.7,�k�k��,1.9,�k�k��,15.9,93.2,0,0,0,0
2020-09-21T02:25:00+09:00,0.8,�k�k��,1.9,�k�k��,15.9,92.9,0,0,0,0
2020-09-21T02:26:00+09:00,0.9,�k�k��,1.9,�k�k��,15.9,92.9,0,0,0,0
2020-09-21T02:27:00+09:00,0.9,�k,1.9,�k�k��,15.9,92.4,0,0,0,0
2020-09-21T02:28:00+09:00,1,�k,1.9,�k�k��,15.8,92.2,0,0,0,0
2020-09-21T02:29:00+09:00,1,�k,1.9,�k�k��,15.8,92.3,0,0,0,0
2020-09-21T02:30:00+09:00,0.9,�k,1.8,�k�k��,15.8,92.6,0,0,0,0
2020-09-21T02:31:00+09:00,0.9,�k,1.8,�k�k��,15.9,92.8,0,0,0,0
2020-09-21T02:32:00+09:00,0.9,�k,1.8,�k�k��,15.7,92.4,0,0,0,0
2020-09-21T02:33:00+09:00,0.8,�k,1.4,�k,15.7,92.3,0,0,0,0
2020-09-21T02:34:00+09:00,0.8,�k,1.4,�k,15.6,92.5,0,0,0,0
2020-09-21T02:35:00+09:00,0.7,�k�k��,1.4,�k,15.6,92.9,0,0,0,0
2020-09-21T02:36:00+09:00,0.8,�k�k��,1.4,�k,15.6,92.9,0,0,0,0
2020-09-21T02:37:00+09:00,0.8,�k�k��,1.6,�k�k��,15.5,93,0,0,0,0
2020-09-21T02:38:00+09:00,0.8,�k�k��,1.8,�k,15.5,93.1,0,0,0,0
2020-09-21T02:39:00+09:00,0.8,�k�k��,1.8,�k,15.5,93.3,0,0,0,0
2020-09-21T02:40:00+09:00,0.9,�k�k��,1.8,�k,15.6,93.6,0,0,0,0
2020-09-21T02:41:00+09:00,1,�k�k��,2.1,�k�k��,15.5,93.4,0,0,0,0
2020-09-21T02:42:00+09:00,1.1,�k�k��,2.3,�k�k��,15.5,93.2,0,0,0,0
2020-09-21T02:43:00+09:00,1.1,�k�k��,2.3,�k�k��,15.6,93.1,0,0,0,0
2020-09-21T02:44:00+09:00,1.2,�k�k��,2.3,�k�k��,15.6,93,0,0,0,0
2020-09-21T02:45:00+09:00,1.3,�k�k��,2.3,�k�k��,15.6,92.8,0,0,0,0
2020-09-21T02:46:00+09:00,1.4,�k�k��,2.3,�k�k��,15.6,92.5,0,0,0,0
2020-09-21T02:47:00+09:00,1.4,�k��,2.3,�k�k��,15.5,92,0,0,0,0
2020-09-21T02:48:00+09:00,1.4,�k��,2.3,�k�k��,15.5,92,0,0,0,0
2020-09-21T02:49:00+09:00,1.5,�k��,2.3,�k�k��,15.5,92.1,0,0,0,0
2020-09-21T02:50:00+09:00,1.5,�k��,2.3,�k�k��,15.4,92.4,0,0,0,0
2020-09-21T02:51:00+09:00,1.6,�k��,2.6,�k�k��,15.4,92.7,0,0,0,0
2020-09-21T02:52:00+09:00,1.6,�k��,2.6,�k�k��,15.5,93.4,0,0,0,0
2020-09-21T02:53:00+09:00,1.7,�k��,2.7,�k�k��,15.6,93.5,0,0,0,0
2020-09-21T02:54:00+09:00,1.7,�k��,2.7,�k�k��,15.6,93.3,0,0,0,0
2020-09-21T02:55:00+09:00,1.8,�k��,2.7,�k�k��,15.6,93.1,0,0,0,0
2020-09-21T02:56:00+09:00,1.8,�k��,2.7,�k�k��,15.6,93,0,0,0,0
2020-09-21T02:57:00+09:00,1.9,�k�k��,2.7,�k�k��,15.7,92.9,0,0,0,0
2020-09-21T02:58:00+09:00,1.9,�k�k��,2.7,�k�k��,15.6,92.7,0,0,0,0
2020-09-21T02:59:00+09:00,1.9,�k�k��,2.7,�k�k��,15.6,92.5,0,0,0,0
2020-09-21T03:00:00+09:00,2,�k�k��,3.2,�k�k��,15.6,92.7,0,0,0,0
2020-09-21T03:01:00+09:00,2.1,�k�k��,3.2,�k�k��,15.6,92.8,0,0,0,0
2020-09-21T03:02:00+09:00,2.1,�k�k��,3.2,�k�k��,15.6,92.7,0,0,0,0
2020-09-21T03:03:00+09:00,2.1,�k�k��,3.2,�k�k��,15.6,92.8,0,0,0,0
2020-09-21T03:04:00+09:00,2.1,�k�k��,3.2,�k�k��,15.5,92.6,0,0,0,0
2020-09-21T03:05:00+09:00,2.1,�k�k��,3.2,�k�k��,15.5,92.2,0,0,0,0
2020-09-21T03:06:00+09:00,2.1,�k��,3.2,�k�k��,15.5,92.6,0,0,0,0
2020-09-21T03:07:00+09:00,2.1,�k��,3.2,�k�k��,15.5,92.9,0,0,0,0
2020-09-21T03:08:00+09:00,2,�k��,3.2,�k�k��,15.5,93,0,0,0,0
2020-09-21T03:09:00+09:00,2,�k��,3.2,�k�k��,15.5,93.1,0,0,0,0
2020-09-21T03:10:00+09:00,2,�k��,3,�k�k��,15.6,93.3,0,0,0,0
2020-09-21T03:11:00+09:00,1.9,�k��,2.7,�k��,15.5,92.9,0,0,0,0
2020-09-21T03:12:00+09:00,2,�k��,3.2,�k�k��,15.4,92.5,0,0,0,0
2020-09-21T03:13:00+09:00,2,�k��,3.3,�k�k��,15.3,92.5,0,0,0,0
2020-09-21T03:14:00+09:00,2.1,�k��,3.3,�k�k��,15.3,92.7,0,0,0,0
2020-09-21T03:15:00+09:00,2.2,�k��,3.3,�k�k��,15.3,92.9,0,0,0,0
2020-09-21T03:16:00+09:00,2.2,�k��,3.3,�k�k��,15.2,93.2,0,0,0,0
2020-09-21T03:17:00+09:00,2.4,�k��,3.3,�k�k��,15.2,93.6,0,0,0,0
2020-09-21T03:18:00+09:00,2.5,�k��,3.6,�k��,15.3,94.1,0,0,0,0
2020-09-21T03:19:00+09:00,2.6,�k��,3.6,�k��,15.3,94.5,0,0,0,0
2020-09-21T03:20:00+09:00,2.6,�k��,3.6,�k��,15.3,94.2,0,0,0,0
2020-09-21T03:21:00+09:00,2.6,�k��,3.6,�k��,15.3,94,0,0,0,0
2020-09-21T03:22:00+09:00,2.5,�k��,3.6,�k��,15.2,94,0,0,0,0
2020-09-21T03:23:00+09:00,2.5,�k��,3.6,�k��,15.2,94.1,0,0,0,0
2020-09-21T03:24:00+09:00,2.4,�k��,3.6,�k��,15.3,94.4,0,0,0,0
2020-09-21T03:25:00+09:00,2.3,�k��,3.6,�k��,15.3,94.5,0,0,0,0
2020-09-21T03:26:00+09:00,2.3,�k��,3.6,�k��,15.5,94.7,0,0,0,0
2020-09-21T03:27:00+09:00,2.2,�k��,3.6,�k��,15.5,94.6,0,0,0,0
2020-09-21T03:28:00+09:00,2.1,�k��,3.6,�k��,15.5,94.1,0,0,0,0
2020-09-21T03:29:00+09:00,2.1,�k��,2.9,�k��,15.5,93.6,0,0,0,0
2020-09-21T03:30:00+09:00,2.1,�k��,3.2,�k�k��,15.4,93.3,0,0,0,0
2020-09-21T03:31:00+09:00,2.2,�k��,3.2,�k�k��,15.3,92.9,0,0,0,0
2020-09-21T03:32:00+09:00,2.2,�k��,3.2,�k�k��,15.2,92.9,0,0,0,0
2020-09-21T03:33:00+09:00,2.3,�k��,3.4,�k�k��,15.2,93.1,0,0,0,0
2020-09-21T03:34:00+09:00,2.3,�k��,3.4,�k�k��,15.3,93.5,0,0,0,0
2020-09-21T03:35:00+09:00,2.3,�k��,3.4,�k�k��,15.3,93.8,0,0,0,0
2020-09-21T03:36:00+09:00,2.3,�k��,3.4,�k�k��,15.3,93.8,0,0,0,0
2020-09-21T03:37:00+09:00,2.4,�k�k��,3.4,�k�k��,15.3,93.8,0,0,0,0
2020-09-21T03:38:00+09:00,2.3,�k�k��,3.4,�k�k��,15.3,94,0,0,0,0
2020-09-21T03:39:00+09:00,2.3,�k�k��,3.4,�k�k��,15.3,93.8,0,0,0,0
2020-09-21T03:40:00+09:00,2.3,�k�k��,3.4,�k�k��,15.4,93.9,0,0,0,0
2020-09-21T03:41:00+09:00,2.2,�k�k��,3.4,�k�k��,15.3,93.7,0,0,0,0
2020-09-21T03:42:00+09:00,2.2,�k�k��,3.4,�k�k��,15.3,93.4,0,0,0,0
2020-09-21T03:43:00+09:00,2.2,�k�k��,3.2,�k�k��,15.2,93.4,0,0,0,0
2020-09-21T03:44:00+09:00,2.1,�k��,3.2,�k�k��,15.2,93.4,0,0,0,0
2020-09-21T03:45:00+09:00,2.2,�k��,3.2,�k�k��,15.2,93.4,0,0,0,0
2020-09-21T03:46:00+09:00,2.2,�k��,3.2,�k�k��,15.2,93.5,0,0,0,0
2020-09-21T03:47:00+09:00,2.2,�k��,3,�k��,15.1,93.6,0,0,0,0
2020-09-21T03:48:00+09:00,2.2,�k��,3,�k��,15.1,93.8,0,0,0,0
2020-09-21T03:49:00+09:00,2.2,�k��,3,�k��,15.1,94,0,0,0,0
2020-09-21T03:50:00+09:00,2.1,�k��,3,�k��,15.1,94.3,0,0,0,0
2020-09-21T03:51:00+09:00,2,�k��,3,�k��,15.2,94.5,0,0,0,0
2020-09-21T03:52:00+09:00,2,�k��,3,�k��,15.2,94.5,0,0,0,0
2020-09-21T03:53:00+09:00,1.8,�k��,2.9,�k��,15.2,94.5,0,0,0,0
2020-09-21T03:54:00+09:00,1.8,�k��,2.9,�k��,15.2,94.4,0,0,0,0
2020-09-21T03:55:00+09:00,1.6,�k��,2.9,�k��,15.2,94.3,0,0,0,0
2020-09-21T03:56:00+09:00,1.5,�k��,2.8,�k��,15.2,94.3,0,0,0,0
2020-09-21T03:57:00+09:00,1.4,�k��,2.5,�k��,15.2,94.1,0,0,0,0
2020-09-21T03:58:00+09:00,1.3,�k��,2.4,�k��,15.2,94,0,0,0,0
2020-09-21T03:59:00+09:00,1.3,�k��,2.2,�k��,15.2,94,0,0,0,0
2020-09-21T04:00:00+09:00,1.3,�k��,1.9,���k��,15.2,93.9,0,0,0,0
2020-09-21T04:01:00+09:00,1.3,���k��,1.9,���k��,15.2,94,0,0,0,0
2020-09-21T04:02:00+09:00,1.3,���k��,1.9,���k��,15.2,93.9,0,0,0,0
2020-09-21T04:03:00+09:00,1.3,���k��,1.9,���k��,15.2,93.7,0,0,0,0
2020-09-21T04:04:00+09:00,1.3,���k��,1.9,���k��,15.2,93.8,0,0,0,0
2020-09-21T04:05:00+09:00,1.3,���k��,1.9,���k��,15.2,93.9,0,0,0,0
2020-09-21T04:06:00+09:00,1.3,���k��,1.9,���k��,15.2,93.7,0,0,0,0
2020-09-21T04:07:00+09:00,1.3,���k��,1.9,���k��,15.2,93.7,0,0,0,0
2020-09-21T04:08:00+09:00,1.3,�k��,1.9,���k��,15.3,93.7,0,0,0,0
2020-09-21T04:09:00+09:00,1.3,�k��,1.9,���k��,15.4,93.8,0,0,0,0
2020-09-21T04:10:00+09:00,1.3,�k��,2.2,�k�k��,15.4,93.5,0,0,0,0
2020-09-21T04:11:00+09:00,1.3,�k��,2.2,�k�k��,15.4,93.2,0,0,0,0
2020-09-21T04:12:00+09:00,1.4,�k��,2.2,�k�k��,15.4,93.1,0,0,0,0
2020-09-21T04:13:00+09:00,1.4,�k�k��,2.2,�k�k��,15.4,92.9,0,0,0,0
2020-09-21T04:14:00+09:00,1.5,�k�k��,2.5,�k�k��,15.3,92.5,0,0,0,0
2020-09-21T04:15:00+09:00,1.5,�k�k��,2.5,�k�k��,15.1,91.8,0,0,0,0
2020-09-21T04:16:00+09:00,1.6,�k�k��,2.5,�k�k��,14.9,91.6,0,0,0,0
2020-09-21T04:17:00+09:00,1.6,�k�k��,2.5,�k�k��,14.8,92,0,0,0,0
2020-09-21T04:18:00+09:00,1.6,�k�k��,2.5,�k�k��,14.9,93,0,0,0,0
2020-09-21T04:19:00+09:00,1.5,�k�k��,2.5,�k�k��,14.9,93.4,0,0,0,0
2020-09-21T04:20:00+09:00,1.5,�k�k��,2.5,�k�k��,14.9,93.7,0,0,0,0
2020-09-21T04:21:00+09:00,1.4,�k�k��,2.5,�k�k��,14.9,93.7,0,0,0,0
2020-09-21T04:22:00+09:00,1.3,�k�k��,2.5,�k�k��,14.9,93.9,0,0,0,0
2020-09-21T04:23:00+09:00,1.2,�k�k��,2.5,�k�k��,14.9,94.1,0,0,0,0
2020-09-21T04:24:00+09:00,1.1,�k��,2.4,�k��,14.9,94.4,0,0,0,0
2020-09-21T04:25:00+09:00,1.1,�k��,2.4,�k��,14.9,94.4,0,0,0,0
2020-09-21T04:26:00+09:00,1,�k��,2,�k�k��,14.9,94.7,0,0,0,0
2020-09-21T04:27:00+09:00,1,�k�k��,2,�k�k��,14.9,94.7,0,0,0,0
2020-09-21T04:28:00+09:00,0.9,�k�k��,2,�k�k��,15,94.8,0,0,0,0
2020-09-21T04:29:00+09:00,0.8,�k�k��,2,�k�k��,15.1,95.2,0,0,0,0
2020-09-21T04:30:00+09:00,0.7,�k�k��,2,�k�k��,15.1,95.1,0,0,0,0
2020-09-21T04:31:00+09:00,0.7,�k�k��,2,�k�k��,15,94.6,0,0,0,0
2020-09-21T04:32:00+09:00,0.8,�k�k��,2,�k�k��,15,94.3,0,0,0,0
2020-09-21T04:33:00+09:00,0.8,�k�k��,2,�k�k��,14.9,93.8,0,0,0,0
2020-09-21T04:34:00+09:00,0.9,�k�k��,2,�k�k��,14.8,93.8,0,0,0,0
2020-09-21T04:35:00+09:00,0.8,�k�k��,2,�k�k��,14.8,94.1,0,0,0,0
2020-09-21T04:36:00+09:00,0.7,�k�k��,1.6,�k��,14.9,94.6,0,0,0,0
2020-09-21T04:37:00+09:00,0.8,�k�k��,1.6,�k��,14.9,94.8,0,0,0,0
2020-09-21T04:38:00+09:00,0.8,�k��,1.6,�k��,14.9,94.8,0,0,0,0
2020-09-21T04:39:00+09:00,0.9,�k��,1.6,�k��,14.8,94.7,0,0,0,0
2020-09-21T04:40:00+09:00,0.9,�k��,1.6,�k��,14.8,94.6,0,0,0,0
2020-09-21T04:41:00+09:00,0.9,�k��,1.6,�k��,14.7,94.6,0,0,0,0
2020-09-21T04:42:00+09:00,0.9,���k��,1.6,�k��,14.7,94.7,0,0,0,0
2020-09-21T04:43:00+09:00,0.8,���k��,1.6,�k��,14.7,94.7,0,0,0,0
2020-09-21T04:44:00+09:00,0.7,���k��,1.3,�k��,14.7,94.9,0,0,0,0
2020-09-21T04:45:00+09:00,0.6,���k��,1.1,�k��,14.7,95.1,0,0,0,0
2020-09-21T04:46:00+09:00,0.6,���k��,1.2,�k�k��,14.7,95.2,0,0,0,0
2020-09-21T04:47:00+09:00,0.6,���k��,1.2,�k�k��,14.7,95.2,0,0,0,0
2020-09-21T04:48:00+09:00,0.6,�k��,1.8,�k��,14.6,95.2,0,0,0,0
2020-09-21T04:49:00+09:00,0.6,�k��,1.8,�k��,14.6,95.2,0,0,0,0
2020-09-21T04:50:00+09:00,0.6,�k��,1.8,�k��,14.6,95.2,0,0,0,0
2020-09-21T04:51:00+09:00,0.6,�k��,1.8,�k��,14.6,95.3,0,0,0,0
2020-09-21T04:52:00+09:00,0.7,�k��,1.8,�k��,14.6,95.3,0,0,0,0
2020-09-21T04:53:00+09:00,0.7,�k��,1.8,�k��,14.7,95.4,0,0,0,0
2020-09-21T04:54:00+09:00,0.8,�k��,1.8,�k��,14.7,95.5,0,0,0,0
2020-09-21T04:55:00+09:00,0.9,�k��,1.8,�k��,14.7,95.5,0,0,0,0
2020-09-21T04:56:00+09:00,0.9,�k��,1.8,�k��,14.7,95.3,0,0,0,0
2020-09-21T04:57:00+09:00,0.9,�k��,1.8,�k��,14.6,95.2,0,0,0,0
2020-09-21T04:58:00+09:00,0.9,�k��,1.5,�k�k��,14.6,95.1,0,0,0,0
2020-09-21T04:59:00+09:00,0.9,�k��,1.5,�k�k��,14.6,95.2,0,0,0,0
2020-09-21T05:00:00+09:00,0.9,�k��,1.5,�k�k��,14.7,95.3,0,0,0,0
2020-09-21T05:01:00+09:00,0.9,�k��,1.8,�k�k��,14.6,95.2,0,0,0,0
2020-09-21T05:02:00+09:00,0.9,�k��,1.8,�k�k��,14.6,95.2,0,0,0,0
2020-09-21T05:03:00+09:00,1,�k��,1.8,�k�k��,14.6,95.3,0,0,0,0
2020-09-21T05:04:00+09:00,1,�k��,1.8,�k�k��,14.6,95.3,0,0,0,0
2020-09-21T05:05:00+09:00,1.1,�k��,1.8,�k�k��,14.6,95.4,0,0,0,0
2020-09-21T05:06:00+09:00,1.1,�k��,1.8,�k�k��,14.5,95.3,0,0,0,0
2020-09-21T05:07:00+09:00,1.2,�k��,2.1,�k�k��,14.5,95.3,0,0,0,0
2020-09-21T05:08:00+09:00,1.3,�k��,2.1,�k�k��,14.5,95.3,0,0,0,0
2020-09-21T05:09:00+09:00,1.4,�k�k��,2.3,�k�k��,14.5,95.3,0,0,0,0
2020-09-21T05:10:00+09:00,1.4,�k�k��,2.3,�k�k��,14.5,95.5,0,0,0,0
2020-09-21T05:11:00+09:00,1.4,�k�k��,2.3,�k�k��,14.4,95.5,0,0,0,0
2020-09-21T05:12:00+09:00,1.4,�k�k��,2.3,�k�k��,14.4,95.4,0,0,0,0
2020-09-21T05:13:00+09:00,1.5,�k�k��,2.3,�k�k��,14.4,95.5,0,0,0,0
2020-09-21T05:14:00+09:00,1.5,�k�k��,2.3,�k�k��,14.4,95.6,0,0,0,0
2020-09-21T05:15:00+09:00,1.4,�k�k��,2.3,�k�k��,14.5,95.7,0,0,0,0
2020-09-21T05:16:00+09:00,1.4,�k�k��,2.3,�k�k��,14.4,95.7,0,0,0,0
2020-09-21T05:17:00+09:00,1.4,�k�k��,2.3,�k�k��,14.4,95.5,0,0,0,0
2020-09-21T05:18:00+09:00,1.3,�k�k��,2.3,�k�k��,14.4,95.5,0,0,0,0
2020-09-21T05:19:00+09:00,1.2,�k�k��,2,�k�k��,14.4,95.5,0,0,0,0
2020-09-21T05:20:00+09:00,1.2,�k�k��,2,�k�k��,14.3,95.5,0,0,0,0
2020-09-21T05:21:00+09:00,1.1,�k�k��,2,�k�k��,14.3,95.6,0,0,0,0
2020-09-21T05:22:00+09:00,1.1,�k�k��,2,�k�k��,14.3,95.5,0,0,0,0
2020-09-21T05:23:00+09:00,1,�k�k��,2,�k�k��,14.3,95.6,0,0,0,0
2020-09-21T05:24:00+09:00,0.9,�k�k��,1.8,�k�k��,14.2,95.5,0,0,0,0
2020-09-21T05:25:00+09:00,0.9,�k�k��,1.8,�k�k��,14.1,95.3,0,0,0,0
2020-09-21T05:26:00+09:00,0.8,�k�k��,1.7,�k�k��,14.3,95.6,0,0,0,0
2020-09-21T05:27:00+09:00,0.8,�k,1.5,�k�k��,14.3,95.7,0,0,0,0
2020-09-21T05:28:00+09:00,0.7,�k,1.5,�k�k��,14.2,95.7,0,0,0,0
2020-09-21T05:29:00+09:00,0.7,�k,1.3,�k,14.2,95.6,0,0,0,0
2020-09-21T05:30:00+09:00,0.7,�k,1.3,�k,14.2,95.6,0,0,0,0
2020-09-21T05:31:00+09:00,0.7,�k,1.3,�k,14.1,95.5,0,0,0,0
2020-09-21T05:32:00+09:00,0.7,�k,1.2,�k��,14.2,95.7,0,0,0,0
2020-09-21T05:33:00+09:00,0.7,�k,1.2,�k��,14.2,95.8,0,0,0,0
2020-09-21T05:34:00+09:00,0.8,�k,1.5,�k��,14.2,95.8,0,0,0,0
2020-09-21T05:35:00+09:00,0.9,�k�k��,2,�k�k��,14.3,96,0,0,0,0
2020-09-21T05:36:00+09:00,1,�k�k��,2,�k�k��,14.2,95.9,0,0,0,0
2020-09-21T05:37:00+09:00,1,�k�k��,2.4,�k��,14.2,95.9,0,0,0,0
2020-09-21T05:38:00+09:00,1.2,�k��,2.4,�k��,14.2,95.9,0,0,0,0
2020-09-21T05:39:00+09:00,1.3,�k��,2.4,�k��,14.2,96,0,0,0,0
2020-09-21T05:40:00+09:00,1.4,�k��,2.4,�k��,14.2,96,0,0,0,0
2020-09-21T05:41:00+09:00,1.5,�k��,2.4,�k��,14.2,96,0,0,0,0
2020-09-21T05:42:00+09:00,1.6,�k��,2.4,�k��,14.2,96,0,0,0,0
2020-09-21T05:43:00+09:00,1.6,�k��,2.4,�k��,14.2,96.1,0,0,0,0
2020-09-21T05:44:00+09:00,1.7,�k��,2.4,�k��,14.3,96.1,0,0,0,0
2020-09-21T05:45:00+09:00,1.7,�k��,2.4,�k��,14.3,96.2,0,0,0,0
2020-09-21T05:46:00+09:00,1.7,�k��,2.4,�k��,14.3,96.2,0,0,0,0
2020-09-21T05:47:00+09:00,1.7,�k��,2.1,�k��,14.3,96.2,0,0,0,0
2020-09-21T05:48:00+09:00,1.7,�k��,2.3,�k��,14.3,96.1,0,0,0,0
2020-09-21T05:49:00+09:00,1.7,�k��,2.6,�k��,14.3,96.1,0,0,0,0
2020-09-21T05:50:00+09:00,1.8,�k��,2.6,�k��,14.3,96.1,0,0,0,0
2020-09-21T05:51:00+09:00,1.8,�k��,2.6,�k��,14.3,96.1,0,0,0,0
2020-09-21T05:52:00+09:00,1.9,�k��,2.6,�k��,14.3,96.2,0,0,0,0
2020-09-21T05:53:00+09:00,1.9,�k��,2.7,�k�k��,14.3,96.2,0,0,0,0
2020-09-21T05:54:00+09:00,2,�k��,3.5,�k�k��,14.3,96.1,0,0,0,0
2020-09-21T05:55:00+09:00,2.1,�k��,3.5,�k�k��,14.4,96.2,0,0,0,0
2020-09-21T05:56:00+09:00,2.2,�k��,3.5,�k�k��,14.4,96.3,0,0,0,0
2020-09-21T05:57:00+09:00,2.3,�k�k��,3.5,�k�k��,14.4,96.3,0,0,0,0
2020-09-21T05:58:00+09:00,2.3,�k�k��,3.5,�k�k��,14.4,96.2,0,0,0,0
2020-09-21T05:59:00+09:00,2.3,�k�k��,3.5,�k�k��,14.3,96,0,0,0,0
2020-09-21T06:00:00+09:00,2.3,�k�k��,3.5,�k�k��,14.3,95.9,0,0,0,0
2020-09-21T06:01:00+09:00,2.4,�k�k��,3.5,�k�k��,14.3,95.9,0,0,0,0
2020-09-21T06:02:00+09:00,2.4,�k�k��,3.5,�k�k��,14.3,96,0,0,0,0
2020-09-21T06:03:00+09:00,2.4,�k�k��,3.5,�k�k��,14.3,96,0,0,0,0
2020-09-21T06:04:00+09:00,2.4,�k�k��,3.4,�k�k��,14.3,96,0,0,0,0
2020-09-21T06:05:00+09:00,2.4,�k�k��,3.3,�k�k��,14.3,96,0,0,0,0
2020-09-21T06:06:00+09:00,2.3,�k�k��,3.3,�k�k��,14.3,96.1,0,0,0,0
2020-09-21T06:07:00+09:00,2.3,�k�k��,3.3,�k�k��,14.3,96.1,0,0,0,0
2020-09-21T06:08:00+09:00,2.3,�k�k��,3.3,�k�k��,14.3,96.1,0,0,0,0
2020-09-21T06:09:00+09:00,2.2,�k�k��,3.3,�k�k��,14.3,96.1,0,0,0,0
2020-09-21T06:10:00+09:00,2.1,�k�k��,3.3,�k�k��,14.3,96.1,0,0,0,0
2020-09-21T06:11:00+09:00,2.1,�k�k��,3.2,�k��,14.4,96.1,0,0,0,0
2020-09-21T06:12:00+09:00,2,�k�k��,3.2,�k��,14.4,96.2,0,0,0,0
2020-09-21T06:13:00+09:00,2,�k�k��,3.2,�k��,14.4,96.2,0,0,0,0
2020-09-21T06:14:00+09:00,1.9,�k�k��,2.8,�k�k��,14.5,96.2,0,0,0,0